Hourly Weather Muriae

Today, 19 September, Sunday

Time Temperature Precipitation Wind Pressure Humidity
00:00 +25°C° 0 mm 1 mps 739 mmHg 59%
01:00 +25°C° 0 mm 1 mps 739 mmHg 60%
02:00 +23°C° 0 mm 0 mps 739 mmHg 62%
03:00 +22°C° 0 mm 0 mps 738 mmHg 63%
04:00 +22°C° 0 mm 0 mps 739 mmHg 63%
05:00 +22°C° 0 mm 0 mps 739 mmHg 63%
06:00 +21°C° 0 mm 0 mps 740 mmHg 63%
07:00 +24°C° 0 mm 0 mps 740 mmHg 56%
08:00 +29°C° 0 mm 1 mps 741 mmHg 49%
09:00 +32°C° 0 mm 1 mps 741 mmHg 42%
10:00 +33°C° 0 mm 1 mps 741 mmHg 38%
11:00 +36°C° 0 mm 2 mps 741 mmHg 35%
12:00 +37°C° 0 mm 2 mps 740 mmHg 32%
13:00 +37°C° 0 mm 2 mps 739 mmHg 31%
14:00 +38°C° 0 mm 3 mps 739 mmHg 31%
15:00 +38°C° 0 mm 3 mps 738 mmHg 30%
16:00 +36°C° 0 mm 3 mps 738 mmHg 39%
17:00 +33°C° 0 mm 4 mps 738 mmHg 47%
18:00 +30°C° 0 mm 4 mps 739 mmHg 56%
19:00 +28°C° 0 mm 4 mps 740 mmHg 64%
20:00 +27°C° 0 mm 4 mps 741 mmHg 73%
21:00 +25°C° 0 mm 3 mps 741 mmHg 81%
22:00 +24°C° 0 mm 3 mps 741 mmHg 83%
23:00 +24°C° 0 mm 2 mps 742 mmHg 85%

Tomorrow, 20 September, Monday

Time Temperature Precipitation Wind Pressure Humidity
00:00 +24°C° 0 mm 2 mps 742 mmHg 87%
01:00 +24°C° 0 mm 2 mps 741 mmHg 85%
02:00 +24°C° 0 mm 1 mps 741 mmHg 84%
03:00 +24°C° 0 mm 1 mps 741 mmHg 83%
04:00 +24°C° 0 mm 1 mps 741 mmHg 83%
05:00 +24°C° 0 mm 1 mps 741 mmHg 83%
06:00 +24°C° 0 mm 1 mps 742 mmHg 84%
07:00 +26°C° 0 mm 1 mps 742 mmHg 76%
08:00 +27°C° 0 mm 1 mps 742 mmHg 67%
09:00 +29°C° 0 mm 2 mps 742 mmHg 59%
10:00 +30°C° 0 mm 2 mps 742 mmHg 54%
11:00 +32°C° 0 mm 2 mps 741 mmHg 48%
12:00 +34°C° 0 mm 3 mps 741 mmHg 43%
13:00 +35°C° 0 mm 3 mps 740 mmHg 41%
14:00 +35°C° 0 mm 3 mps 739 mmHg 39%
15:00 +36°C° 0 mm 4 mps 738 mmHg 36%
16:00 +34°C° 0 mm 4 mps 739 mmHg 43%
17:00 +32°C° 0 mm 4 mps 739 mmHg 49%
18:00 +29°C° 0 mm 4 mps 739 mmHg 56%
19:00 +27°C° 0 mm 3 mps 739 mmHg 63%
20:00 +26°C° 0 mm 2 mps 740 mmHg 70%
21:00 +24°C° 0 mm 1 mps 740 mmHg 77%
22:00 +24°C° 0 mm 1 mps 740 mmHg 78%
23:00 +24°C° 0 mm 1 mps 740 mmHg 79%

Day after tomorrow, 21 September, Tuesday

Time Temperature Precipitation Wind Pressure Humidity
00:00 +21°C° 0 mm 0 mps 740 mmHg 80%
01:00 +21°C° 0 mm 0 mps 739 mmHg 80%
02:00 +23°C° 0 mm 1 mps 739 mmHg 81%
03:00 +23°C° 0 mm 1 mps 738 mmHg 81%
04:00 +23°C° 0 mm 1 mps 738 mmHg 81%
05:00 +23°C° 0 mm 1 mps 738 mmHg 81%
06:00 +23°C° 0 mm 1 mps 738 mmHg 81%
07:00 +26°C° 0 mm 1 mps 738 mmHg 69%
08:00 +29°C° 0 mm 1 mps 738 mmHg 56%
09:00 +33°C° 0 mm 1 mps 738 mmHg 44%
10:00 +35°C° 0 mm 1 mps 738 mmHg 37%
11:00 +39°C° 0 mm 2 mps 737 mmHg 30%
12:00 +42°C° 0 mm 2 mps 736 mmHg 23%
13:00 +42°C° 0 mm 2 mps 735 mmHg 22%
14:00 +42°C° 0 mm 2 mps 735 mmHg 20%
15:00 +43°C° 0 mm 2 mps 734 mmHg 19%
16:00 +40°C° 0 mm 2 mps 734 mmHg 22%
17:00 +38°C° 0 mm 2 mps 734 mmHg 26%
18:00 +35°C° 0 mm 1 mps 734 mmHg 29%
19:00 +34°C° 0.1 mm 2 mps 735 mmHg 35%
20:00 +33°C° 0.1 mm 3 mps 736 mmHg 40%
21:00 +31°C° 0.1 mm 3 mps 737 mmHg 46%
22:00 +29°C° 0.3 mm 3 mps 737 mmHg 57%
23:00 +27°C° 0.3 mm 2 mps 738 mmHg 68%

22 September, Wednesday

Time Temperature Precipitation Wind Pressure Humidity
00:00 +25°C° 0.3 mm 1 mps 738 mmHg 80%
01:00 +25°C° 0 mm 1 mps 738 mmHg 81%
02:00 +25°C° 0 mm 1 mps 738 mmHg 82%
03:00 +25°C° 0 mm 2 mps 737 mmHg 82%
04:00 +24°C° 0 mm 2 mps 738 mmHg 81%
05:00 +24°C° 0 mm 2 mps 738 mmHg 79%
06:00 +23°C° 0 mm 2 mps 739 mmHg 77%
07:00 +24°C° 0 mm 2 mps 739 mmHg 70%
08:00 +25°C° 0 mm 3 mps 740 mmHg 63%
09:00 +26°C° 0 mm 3 mps 741 mmHg 56%
10:00 +28°C° 0 mm 3 mps 740 mmHg 50%
11:00 +30°C° 0 mm 3 mps 740 mmHg 43%
12:00 +32°C° 0 mm 4 mps 740 mmHg 37%
13:00 +33°C° 0 mm 4 mps 739 mmHg 36%
14:00 +33°C° 0 mm 4 mps 739 mmHg 36%
15:00 +33°C° 0 mm 4 mps 738 mmHg 35%
16:00 +30°C° 0 mm 4 mps 739 mmHg 41%
17:00 +28°C° 0 mm 4 mps 739 mmHg 47%
18:00 +26°C° 0 mm 4 mps 740 mmHg 53%
19:00 +23°C° 0 mm 4 mps 741 mmHg 57%
20:00 +22°C° 0 mm 3 mps 742 mmHg 61%
21:00 +20°C° 0 mm 2 mps 743 mmHg 65%
22:00 +20°C° 0 mm 2 mps 743 mmHg 67%
23:00 +19°C° 0 mm 2 mps 743 mmHg 69%

23 September, Thursday

Time Temperature Precipitation Wind Pressure Humidity
00:00 +18°C° 0 mm 2 mps 743 mmHg 71%
01:00 +18°C° 0 mm 2 mps 743 mmHg 72%
02:00 +18°C° 0 mm 2 mps 743 mmHg 72%
03:00 +17°C° 0 mm 2 mps 742 mmHg 72%
04:00 +19°C° 0 mm 1 mps 743 mmHg 70%
05:00 +19°C° 0 mm 1 mps 743 mmHg 69%
06:00 +19°C° 0 mm 1 mps 743 mmHg 67%
07:00 +20°C° 0 mm 1 mps 744 mmHg 64%
08:00 +20°C° 0 mm 1 mps 744 mmHg 61%
09:00 +20°C° 0 mm 2 mps 745 mmHg 58%
10:00 +23°C° 0 mm 2 mps 744 mmHg 51%
11:00 +25°C° 0 mm 2 mps 744 mmHg 45%
12:00 +27°C° 0 mm 3 mps 743 mmHg 38%
13:00 +28°C° 0 mm 3 mps 743 mmHg 36%
14:00 +28°C° 0 mm 4 mps 742 mmHg 34%
15:00 +29°C° 0 mm 4 mps 742 mmHg 32%
16:00 +27°C° 0 mm 5 mps 742 mmHg 36%
17:00 +25°C° 0 mm 5 mps 742 mmHg 41%
18:00 +22°C° 0 mm 5 mps 743 mmHg 45%
19:00 +21°C° 0 mm 5 mps 743 mmHg 53%
20:00 +19°C° 0 mm 4 mps 744 mmHg 60%
21:00 +18°C° 0 mm 3 mps 745 mmHg 67%
22:00 +17°C° 0 mm 3 mps 744 mmHg 71%
23:00 +17°C° 0 mm 2 mps 744 mmHg 75%

24 September, Friday

Time Temperature Precipitation Wind Pressure Humidity
00:00 +16°C° 0 mm 2 mps 744 mmHg 78%
01:00 +16°C° 0 mm 2 mps 744 mmHg 81%
02:00 +15°C° 0 mm 1 mps 744 mmHg 83%
03:00 +15°C° 0 mm 1 mps 743 mmHg 86%
04:00 +15°C° 0 mm 1 mps 744 mmHg 86%
05:00 +15°C° 0 mm 1 mps 744 mmHg 86%
06:00 +15°C° 0 mm 1 mps 744 mmHg 86%
07:00 +19°C° 0 mm 1 mps 744 mmHg 75%
08:00 +21°C° 0 mm 1 mps 745 mmHg 64%
09:00 +24°C° 0 mm 2 mps 745 mmHg 53%
10:00 +26°C° 0 mm 2 mps 744 mmHg 48%
11:00 +28°C° 0 mm 2 mps 743 mmHg 42%
12:00 +30°C° 0 mm 2 mps 743 mmHg 37%
13:00 +31°C° 0 mm 3 mps 742 mmHg 35%
14:00 +31°C° 0 mm 3 mps 741 mmHg 34%
15:00 +33°C° 0 mm 3 mps 740 mmHg 33%
16:00 +29°C° 0 mm 4 mps 740 mmHg 40%
17:00 +27°C° 0 mm 4 mps 741 mmHg 47%
18:00 +25°C° 0 mm 5 mps 741 mmHg 54%
19:00 +22°C° 0 mm 4 mps 742 mmHg 60%
20:00 +21°C° 0 mm 3 mps 742 mmHg 66%
21:00 +20°C° 0 mm 1 mps 743 mmHg 72%
22:00 +20°C° 0 mm 1 mps 743 mmHg 75%
23:00 +19°C° 0 mm 1 mps 743 mmHg 77%
Show more

We Need Your Consent

Meteoprog and our Service Providers may store and access personal data such as cookies, device identifiers or other similar technologies on your device and process such data to personalise content and ads, as well as provide social media features and to analyse the traffic.

  • Store and/or access information on your device

    Cookies, device identifiers or other information can be stored or accessed on your device for the purposes indicated above.

  • Personalised ads and content, ad and content measurement, audience insights, and products development

    Ads and content can be personalised based on a profile. More data can be added to better personalise ads and content. Ad and content performance can be measured. Insights about the audience who saw the ads and content can be derived. Such data can be used to develop or improve user’s experience, systems and software.

By clicking ‘I Agree’ you will allow the use of indicated cookies, device identifiers, web beacons or other similar technologies. Your settings can be changed in the browser on your device.

For certain purposes, legitimate interests may be relied on, rather than consent. You can read more about this in our Privacy and Cookie Policy.